Home   Weather   Graz   Past weeks

Flag for Austria Past Weather in Graz, Styria, Austria — Yesterday and Last 2 Weeks

Now
64 °F

Broken clouds.


Feels Like: 64 °F
Forecast: 45 / 51 °F
Wind: 16 mph from South

Location: Graz-Thalerhof-Flughafen

Current Time: Apr 26, 2017 at 12:27:38 pm

Latest Report: Apr 26, 2017 at 11:50 am


Visibility: N/A

Pressure: 29.74 "Hg

Humidity: 46%

Dew Point: 43 °F

Location of GrazLocation

Past Weather in Graz — Graph

°F

Graz Temperature Yesterday

Maximum temperature yesterday: 68 °F (at 11:50 am)
Minimum temperature yesterday: 36 °F (at 3:50 am)
Average temperature yesterday: 55 °F

High & Low Weather Summary for the Past Weeks

 TemperatureHumidityPressure
High68 °F (Apr 25, 11:50 am)100% (Apr 12, 1:50 am)30.42 "Hg (Apr 12, 1:50 am)
Low23 °F (Apr 21, 6:20 am)23% (Apr 21, 3:20 pm)29.71 "Hg (Apr 26, 1:50 am)
Average48 °F61%30.03 "Hg
* Reported Apr 11 11:20 am — Apr 26 11:20 am, Graz, Weather by CustomWeather, © 2017

Note: Actual official high and low records may vary slightly from our data, if they occured in-between our weather recording intervals... More about our weather records

Advertising

Graz Weather History for the Previous 24 Hours

Scroll right to see more
 ConditionsComfort  
Time TempWeatherWind HumidityBarometerVisibility
11:20 am
Wed, Apr 26
64 °FBroken clouds.14 mph43%29.74 "HgN/A
10:50 am64 °FPassing clouds.16 mph43%29.74 "HgN/A
10:20 am63 °FPartly sunny.20 mph49%29.74 "HgN/A
9:50 am61 °FBroken clouds.17 mph48%29.74 "HgN/A
9:20 am59 °FBroken clouds.16 mph55%29.74 "HgN/A
8:50 am59 °FPartly sunny.17 mph55%29.74 "HgN/A
8:20 am59 °FBroken clouds.20 mph51%29.74 "HgN/A
7:50 am59 °FPartly sunny.18 mph51%29.71 "HgN/A
7:20 am57 °FPartly sunny.18 mph59%29.71 "HgN/A
6:50 am57 °FPartly sunny.15 mph59%29.71 "HgN/A
6:20 am57 °FPartly sunny.14 mph59%29.71 "HgN/A
5:50 am57 °FPassing clouds.14 mph59%29.71 "HgN/A
5:20 am57 °FPassing clouds.15 mph59%29.71 "HgN/A
4:50 am57 °FPassing clouds.16 mph59%29.71 "HgN/A
4:20 am57 °FPassing clouds.15 mph59%29.71 "HgN/A
3:50 am59 °FPassing clouds.13 mph59%29.71 "HgN/A
3:20 am59 °FPassing clouds.17 mph59%29.71 "HgN/A
2:50 am59 °FPassing clouds.12 mph55%29.71 "HgN/A
2:20 am59 °FPassing clouds.15 mph55%29.71 "HgN/A
1:50 am59 °FOvercast.10 mph55%29.71 "HgN/A
1:20 am55 °FPartly cloudy.3 mph63%29.74 "HgN/A
12:50 am57 °FPartly cloudy.3 mph59%29.74 "HgN/A
12:20 am55 °FPassing clouds.5 mph63%29.77 "HgN/A
11:50 pm
Tue, Apr 25
55 °FPassing clouds.6 mph63%29.74 "HgN/A
11:20 pm55 °FPassing clouds.1 mph63%29.77 "HgN/A
10:50 pm57 °FPassing clouds.6 mph59%29.77 "HgN/A
10:20 pm55 °FPassing clouds.6 mph63%29.77 "HgN/A
9:50 pm57 °FPassing clouds.8 mph55%29.77 "HgN/A
9:20 pm57 °FPassing clouds.14 mph55%29.77 "HgN/A
8:50 pm59 °FPassing clouds.13 mph51%29.77 "HgN/A
8:20 pm59 °FPassing clouds.10 mph51%29.74 "HgN/A
7:50 pm61 °FPassing clouds.9 mph48%29.74 "HgN/A
7:20 pm61 °FPassing clouds.12 mph45%29.74 "HgN/A
6:50 pm63 °FPassing clouds.12 mph42%29.74 "HgN/A
6:20 pm64 °FPassing clouds.8 mph43%29.74 "HgN/A
5:50 pm66 °FPassing clouds.13 mph37%29.77 "HgN/A
5:20 pm68 °FPassing clouds.13 mph35%29.77 "HgN/A
4:50 pm64 °FScattered clouds.10 mph40%29.77 "HgN/A
4:20 pm66 °FScattered clouds.13 mph37%29.77 "HgN/A
3:50 pm66 °FPartly sunny.14 mph37%29.77 "HgN/A
3:20 pm66 °FPartly sunny.13 mph37%29.77 "HgN/A
2:50 pm68 °FScattered clouds.15 mph38%29.77 "HgN/A
2:20 pm66 °FScattered clouds.17 mph40%29.77 "HgN/A
1:50 pm66 °FPartly sunny.14 mph43%29.80 "HgN/A
1:20 pm66 °FPassing clouds.15 mph37%29.77 "HgN/A
12:50 pm68 °FScattered clouds.13 mph35%29.80 "HgN/A
12:20 pm68 °FScattered clouds.8 mph30%29.80 "HgN/A
Weather by CustomWeather, © 2017

See weather overviewHow to use our weather pages